Change the Weather History Date:

Sunday, February 17, 2013

  Actual Average Record
Temperature  
Mean Temperature 29 °F -  
Max Temperature 39 °F 30 °F 59 °F (2011)
Min Temperature 19 °F 16 °F -9 °F (2006)
Degree Days  
Heating Degree Days 36    
Moisture  
Dew Point 23 °F    
Average Humidity 79    
Maximum Humidity 93    
Minimum Humidity 70    
Precipitation  
Precipitation 0.00 in - - ()
Sea Level Pressure  
Sea Level Pressure 29.83 in    
Wind  
Wind Speed 15 mph (SSE)    
Max Wind Speed 29 mph    
Max Gust Speed 36 mph    
Visibility 10 miles    
Events Snow    
Averages and records for this station are not official NWS values.
T = Trace of Precipitation, MM = Missing Value Source: NWS Daily Summary

Daily Weather History Graph

Daily Weather History Graph

Search for Another Location

Airport or City:

Trip Planner

Search our weather history database for the weather conditions in past years. The results will help you decide how hot, cold, wet, or windy it might be!

Date:

Astronomy

Feb. 17, 2013 Rise Set
Actual Time 7:11 AM CST 5:51 PM CST
Civil Twilight 6:42 AM CST 6:20 PM CST
Nautical Twilight 6:09 AM CST 6:53 PM CST
Astronomical Twilight 5:36 AM CST 7:26 PM CST
Moon 10:52 AM CST (2/17) 12:59 AM CST (2/17)
Length of Visible Light 11h 37m
Length of Day
10h 39m
Waxing Crescent, 49% of the Moon is Illuminated
Feb 17
Waxing Crescent
Feb 17
First Quarter
Feb 25
Full
Mar 4
Last Quarter
Mar 11
New

Hourly Weather History & Observations

Time (CST) Temp. Windchill Dew Point Humidity Pressure Visibility Wind Dir Wind Speed Gust Speed Precip Events Conditions
12:15 AM 23.0 °F 11.7 °F 19.4 °F 86% 30.03 in 10.0 mi SSE 11.5 mph - N/A   Clear
12:35 AM 23.0 °F 11.1 °F 19.4 °F 86% 30.03 in 10.0 mi SSE 12.7 mph - N/A   Clear
12:55 AM 21.2 °F 8.9 °F 19.4 °F 93% 30.03 in 10.0 mi SSE 12.7 mph - N/A   Clear
1:15 AM 21.2 °F 9.5 °F 19.4 °F 93% 30.02 in 10.0 mi SSE 11.5 mph - N/A   Clear
1:35 AM 21.2 °F 10.1 °F 17.6 °F 86% 30.03 in 10.0 mi SSE 10.4 mph - N/A   Clear
1:55 AM 21.2 °F 10.1 °F 17.6 °F 86% 30.03 in 10.0 mi SSE 10.4 mph - N/A   Clear
2:15 AM 21.2 °F 10.9 °F 17.6 °F 86% 30.03 in 10.0 mi SE 9.2 mph - N/A   Clear
2:35 AM 21.2 °F 10.9 °F 17.6 °F 86% 30.03 in 10.0 mi SE 9.2 mph - N/A   Clear
2:55 AM 21.2 °F 10.1 °F 17.6 °F 86% 30.02 in 10.0 mi SE 10.4 mph - N/A   Clear
3:15 AM 21.2 °F 9.5 °F 17.6 °F 86% 30.02 in 10.0 mi SE 11.5 mph - N/A   Clear
3:35 AM 21.2 °F 10.1 °F 17.6 °F 86% 30.01 in 10.0 mi SE 10.4 mph - N/A   Clear
3:55 AM 19.4 °F 7.2 °F 17.6 °F 93% 30.00 in 10.0 mi SE 11.5 mph - N/A   Clear
4:15 AM 19.4 °F 8.6 °F 17.6 °F 93% 30.00 in 10.0 mi SE 9.2 mph - N/A   Clear
4:35 AM 19.4 °F 7.9 °F 17.6 °F 93% 30.00 in 10.0 mi SE 10.4 mph - N/A   Clear
4:55 AM 19.4 °F 7.9 °F 15.8 °F 86% 30.00 in 10.0 mi SE 10.4 mph - N/A   Clear
5:15 AM 19.4 °F 7.2 °F 15.8 °F 86% 29.99 in 10.0 mi SE 11.5 mph - N/A   Clear
5:35 AM 19.4 °F 7.2 °F 15.8 °F 86% 29.98 in 10.0 mi SE 11.5 mph - N/A   Partly Cloudy
5:55 AM 19.4 °F 6.6 °F 15.8 °F 86% 29.98 in 10.0 mi SE 12.7 mph - N/A   Partly Cloudy
6:15 AM 19.4 °F 6.6 °F 15.8 °F 86% 29.98 in 10.0 mi SE 12.7 mph - N/A   Clear
6:35 AM 19.4 °F 6.0 °F 15.8 °F 86% 29.96 in 10.0 mi SE 13.8 mph - N/A   Clear
6:55 AM 19.4 °F 6.6 °F 15.8 °F 86% 29.96 in 10.0 mi SE 12.7 mph 18.4 mph N/A   Clear
7:15 AM 19.4 °F 5.5 °F 15.8 °F 86% 29.95 in 10.0 mi SSE 15.0 mph - N/A   Clear
7:35 AM 19.4 °F 5.5 °F 15.8 °F 86% 29.94 in 10.0 mi SSE 15.0 mph - N/A   Clear
7:55 AM 19.4 °F 5.0 °F 15.8 °F 86% 29.95 in 10.0 mi SSE 16.1 mph - N/A   Clear
8:15 AM 19.4 °F 5.0 °F 15.8 °F 86% 29.95 in 10.0 mi SSE 16.1 mph - N/A   Clear
8:35 AM 21.2 °F 6.8 °F 17.6 °F 86% 29.94 in 10.0 mi SSE 17.3 mph - N/A   Clear
8:55 AM 23.0 °F 9.6 °F 17.6 °F 80% 29.94 in 10.0 mi SSE 16.1 mph - N/A   Clear
9:15 AM 23.0 °F 9.6 °F 19.4 °F 86% 29.93 in 10.0 mi SSE 16.1 mph 21.9 mph N/A   Clear
9:35 AM 24.8 °F 11.5 °F 19.4 °F 80% 29.93 in 10.0 mi SSE 17.3 mph 23.0 mph N/A   Clear
9:55 AM 26.6 °F 13.4 °F 21.2 °F 80% 29.93 in 10.0 mi SSE 18.4 mph - N/A   Clear
10:15 AM 28.4 °F 17.0 °F 23.0 °F 80% 29.92 in - SSE 15.0 mph - N/A   Clear
10:35 AM 28.4 °F 16.2 °F 23.0 °F 80% 29.91 in 10.0 mi SSE 17.3 mph - N/A   Clear
10:55 AM 30.2 °F 18.9 °F 23.0 °F 75% 29.91 in 10.0 mi SSE 16.1 mph 23.0 mph N/A   Clear
11:15 AM 30.2 °F 19.3 °F 24.8 °F 80% 29.89 in 10.0 mi SSE 15.0 mph 24.2 mph N/A   Clear
11:35 AM 32.0 °F 20.8 °F 24.8 °F 75% 29.88 in 10.0 mi SSE 17.3 mph - N/A   Clear
11:55 AM 32.0 °F 20.1 °F 24.8 °F 75% 29.87 in 10.0 mi SSE 19.6 mph 25.3 mph N/A   Clear
12:15 PM 32.0 °F 20.5 °F 26.6 °F 80% 29.85 in 10.0 mi SSE 18.4 mph - N/A   Clear
12:35 PM 33.8 °F 22.2 °F 26.6 °F 75% 29.84 in 10.0 mi SSE 20.7 mph - N/A   Clear
12:55 PM 33.8 °F 22.2 °F 26.6 °F 75% 29.83 in 10.0 mi SSE 20.7 mph 28.8 mph N/A   Clear
1:15 PM 35.6 °F 24.0 °F 26.6 °F 70% 29.81 in 10.0 mi SSE 23.0 mph 29.9 mph N/A Snow Light Snow
1:35 PM 35.6 °F 24.2 °F 28.4 °F 75% 29.80 in 10.0 mi SSE 21.9 mph 29.9 mph N/A Snow Light Snow
1:55 PM 37.4 °F 26.9 °F 28.4 °F 70% 29.78 in 10.0 mi SSE 20.7 mph 28.8 mph N/A Snow Light Snow
2:15 PM 37.4 °F 26.9 °F 28.4 °F 70% 29.77 in 10.0 mi SSE 20.7 mph 33.4 mph N/A Snow Light Snow
2:35 PM 37.4 °F 26.1 °F 28.4 °F 70% 29.75 in 10.0 mi SSE 24.2 mph 31.1 mph N/A   Clear
2:55 PM 37.4 °F 25.9 °F 28.4 °F 70% 29.75 in 10.0 mi SSE 25.3 mph 31.1 mph N/A Snow Light Snow
3:15 PM 37.4 °F 27.2 °F 28.4 °F 70% 29.74 in 10.0 mi SSE 19.6 mph 27.6 mph N/A Snow Light Snow
3:35 PM 37.4 °F 27.5 °F 28.4 °F 70% 29.74 in 10.0 mi SSE 18.4 mph 28.8 mph N/A   Clear
3:55 PM 39.2 °F 29.6 °F 30.2 °F 70% 29.72 in 10.0 mi SSE 19.6 mph 29.9 mph N/A   Clear
4:15 PM 39.2 °F 28.3 °F 30.2 °F 70% 29.71 in 10.0 mi SSE 25.3 mph 32.2 mph N/A   Clear
4:35 PM 37.4 °F 26.1 °F 28.4 °F 70% 29.70 in 10.0 mi SSE 24.2 mph - N/A   Clear
4:55 PM 37.4 °F 27.2 °F 28.4 °F 70% 29.69 in 10.0 mi SSE 19.6 mph 28.8 mph N/A Snow Light Snow
5:15 PM 37.4 °F 26.6 °F 28.4 °F 70% 29.68 in 10.0 mi SE 21.9 mph 33.4 mph N/A Snow Light Snow
5:35 PM 35.6 °F 23.4 °F 28.4 °F 75% 29.67 in 10.0 mi SE 25.3 mph 31.1 mph N/A Snow Light Snow
5:55 PM 35.6 °F 24.2 °F 28.4 °F 75% 29.66 in 10.0 mi SE 21.9 mph - N/A Snow Light Snow
6:15 PM 35.6 °F 25.2 °F 28.4 °F 75% 29.66 in 10.0 mi SE 18.4 mph 28.8 mph N/A   Clear
6:35 PM 35.6 °F 24.0 °F 28.4 °F 75% 29.66 in 10.0 mi SE 23.0 mph 29.9 mph N/A Snow Light Snow
6:55 PM 35.6 °F 23.7 °F 28.4 °F 75% 29.65 in 10.0 mi SSE 24.2 mph 32.2 mph N/A Snow Light Snow
7:15 PM 35.6 °F 23.7 °F 28.4 °F 75% 29.65 in 10.0 mi SSE 24.2 mph 33.4 mph N/A Snow Light Snow
7:35 PM 35.6 °F 23.7 °F 28.4 °F 75% 29.65 in 10.0 mi SSE 24.2 mph 31.1 mph N/A Snow Light Snow
7:55 PM 35.6 °F 24.2 °F 28.4 °F 75% 29.64 in 10.0 mi SSE 21.9 mph 28.8 mph N/A Snow Light Snow
8:15 PM 35.6 °F 23.7 °F 28.4 °F 75% 29.64 in 10.0 mi SSE 24.2 mph - N/A Snow Light Snow
8:35 PM 35.6 °F 24.2 °F 28.4 °F 75% 29.62 in 10.0 mi SSE 21.9 mph 31.1 mph N/A Snow Light Snow
8:55 PM 35.6 °F 23.7 °F 28.4 °F 75% 29.62 in 10.0 mi SSE 24.2 mph 34.5 mph N/A Snow Light Snow
9:15 PM 35.6 °F 23.0 °F 26.6 °F 70% 29.61 in 10.0 mi SSE 27.6 mph 35.7 mph N/A Snow Light Snow
9:35 PM 35.6 °F 22.7 °F 28.4 °F 75% 29.60 in 10.0 mi SSE 28.8 mph - N/A Snow Light Snow
9:55 PM 35.6 °F 23.2 °F 28.4 °F 75% 29.60 in 10.0 mi SSE 26.5 mph 33.4 mph N/A Snow Light Snow
10:15 PM 35.6 °F 23.7 °F 28.4 °F 75% 29.59 in 10.0 mi SSE 24.2 mph 34.5 mph N/A Snow Light Snow
10:35 PM 35.6 °F 24.0 °F 28.4 °F 75% 29.59 in 10.0 mi SSE 23.0 mph 32.2 mph N/A Snow Light Snow
10:55 PM 35.6 °F 24.8 °F 28.4 °F 75% 29.58 in 10.0 mi SSE 19.6 mph 25.3 mph N/A Snow Light Snow
11:15 PM 35.6 °F 24.5 °F 28.4 °F 75% 29.57 in 10.0 mi SSE 20.7 mph 29.9 mph N/A   Clear
11:35 PM 35.6 °F 24.5 °F 28.4 °F 75% 29.57 in 10.0 mi South 20.7 mph - N/A   Clear
11:55 PM 35.6 °F 24.8 °F 28.4 °F 75% 29.56 in 10.0 mi South 19.6 mph - N/A   Clear